Вернуться в каталог

CZ-3C DEB

АктивенGTO
NORAD 40197·DEBRIS·🇨🇳 China

Запущен Feb 24, 2012 с Xichang Satellite Launch Center

Loading…

TLE

УстаревающийSource: Space-Track

Эпоха: Sep 14, 2026, 10:35 UTC

1 40197U 12008G   26257.44148032 -.00000036  00000-0  00000-0 0  9990
2 40197  20.1344 223.1458 6983215 201.2737 102.3394  2.19839394102944

Отслеживайте CZ-3C DEB в реальном времени с AllMySat

Download on the App Store